T7GPM LICT-LIPR

Flight info

Callsign T7GPM
Flight time 1h 18m
Altitude 36000
Route GIANO1G GIANO DCT RONAB DCT KONUT DCT RITEB DCT LIKNO M730 ASDOR ASDOR2F
Aircraft P180/L-SBDGHM1RWXY/C

Departure

Time 2026-05-07 16:37
Airport Vincenzo Florio Airport Trapani-Birgi (LICT)

Arrival

Time 2026-05-07 17:56
Airport Federico Fellini International Airport (LIPR)
Time Latitude Longitude Altitude Speed Heading
2026-05-07 16:31 37.90281 12.49585 24 ft 0 kts 261°
2026-05-07 16:33 37.90269 12.49580 26 ft 3 kts 163°
2026-05-07 16:33 37.90265 12.49621 24 ft 10 kts 90°
2026-05-07 16:33 37.90267 12.49679 24 ft 0 kts 82°
2026-05-07 16:33 37.90279 12.49702 25 ft 10 kts 49°
2026-05-07 16:34 37.90354 12.49732 26 ft 14 kts 323°
2026-05-07 16:34 37.90430 12.49663 24 ft 16 kts 28°
2026-05-07 16:34 37.90517 12.49750 25 ft 10 kts 58°
2026-05-07 16:34 37.90478 12.49850 26 ft 16 kts 126°
2026-05-07 16:35 37.90415 12.49956 24 ft 5 kts 74°
2026-05-07 16:35 37.90441 12.49931 25 ft 8 kts 304°
2026-05-07 16:35 37.90448 12.49920 24 ft 12 kts 307°
2026-05-07 16:35 37.90632 12.49621 24 ft 70 kts 308°
2026-05-07 16:36 37.91009 12.49007 18 ft 105 kts 308°
2026-05-07 16:36 37.91511 12.48207 12 ft 124 kts 309°
2026-05-07 16:36 37.92048 12.47374 276 ft 124 kts 308°
2026-05-07 16:36 37.92673 12.46355 201 ft 168 kts 307°
2026-05-07 16:37 37.93411 12.45104 395 ft 182 kts 307°
2026-05-07 16:37 37.94296 12.43994 774 ft 183 kts 330°
2026-05-07 16:37 37.95538 12.43546 1082 ft 190 kts 351°
2026-05-07 16:37 37.96865 12.43337 1399 ft 194 kts 349°
2026-05-07 16:38 37.98217 12.43088 1740 ft 197 kts 349°
2026-05-07 16:38 37.99582 12.42846 2057 ft 198 kts 349°
2026-05-07 16:38 38.00957 12.42603 2362 ft 199 kts 350°
2026-05-07 16:38 38.02335 12.42357 2667 ft 201 kts 350°
2026-05-07 16:39 38.03677 12.41908 2962 ft 200 kts 332°
2026-05-07 16:39 38.04998 12.41422 3255 ft 203 kts
2026-05-07 16:39 38.06402 12.41686 3551 ft 206 kts
2026-05-07 16:39 38.07840 12.41685 3913 ft 207 kts 355°
2026-05-07 16:40 38.09261 12.41572 4309 ft 208 kts 356°
2026-05-07 16:40 38.10712 12.41494 4712 ft 210 kts 358°
2026-05-07 16:40 38.12184 12.41423 5103 ft 212 kts 358°
2026-05-07 16:40 38.13670 12.41345 5499 ft 215 kts 358°
2026-05-07 16:41 38.15168 12.41268 5897 ft 216 kts 358°
2026-05-07 16:41 38.16674 12.41193 6297 ft 217 kts 358°
2026-05-07 16:41 38.18184 12.41114 6674 ft 217 kts 358°
2026-05-07 16:41 38.19697 12.41113 7048 ft 218 kts
2026-05-07 16:42 38.21176 12.41431 7428 ft 218 kts 10°
2026-05-07 16:42 38.22675 12.41757 7817 ft 218 kts
2026-05-07 16:42 38.24176 12.42014 8219 ft 217 kts
2026-05-07 16:42 38.25673 12.42280 8620 ft 217 kts
2026-05-07 16:43 38.27163 12.42550 9022 ft 216 kts
2026-05-07 16:43 38.28646 12.42821 9427 ft 215 kts
2026-05-07 16:43 38.30122 12.43089 9871 ft 212 kts
2026-05-07 16:43 38.31581 12.43355 10358 ft 211 kts
2026-05-07 16:44 38.33029 12.43618 10838 ft 210 kts
2026-05-07 16:44 38.34488 12.43881 11319 ft 214 kts
2026-05-07 16:44 38.35967 12.44152 11805 ft 216 kts
2026-05-07 16:44 38.37462 12.44422 12304 ft 218 kts
2026-05-07 16:45 38.38968 12.44699 12806 ft 219 kts
2026-05-07 16:45 38.40481 12.44974 13319 ft 219 kts
2026-05-07 16:45 38.41970 12.45246 13810 ft 219 kts
2026-05-07 16:45 38.43478 12.45520 14270 ft 218 kts
2026-05-07 16:46 38.44976 12.45795 14736 ft 217 kts
2026-05-07 16:46 38.46464 12.46066 15215 ft 215 kts
2026-05-07 16:46 38.47937 12.46337 15692 ft 213 kts
2026-05-07 16:46 38.49401 12.46601 16108 ft 214 kts
2026-05-07 16:47 38.50892 12.46872 16456 ft 219 kts
2026-05-07 16:47 38.52411 12.47151 16811 ft 222 kts
2026-05-07 16:47 38.53952 12.47432 17172 ft 225 kts
2026-05-07 16:47 38.55511 12.47720 17537 ft 227 kts
2026-05-07 16:48 38.57083 12.48006 17903 ft 228 kts
2026-05-07 16:48 38.58660 12.48297 18254 ft 230 kts
2026-05-07 16:48 38.60224 12.48582 18566 ft 230 kts
2026-05-07 16:48 38.61814 12.48874 18889 ft 231 kts
2026-05-07 16:49 38.63405 12.49166 19220 ft 231 kts
2026-05-07 16:49 38.64997 12.49458 19544 ft 231 kts 360°
2026-05-07 16:49 38.66595 12.49751 19877 ft 233 kts 359°
2026-05-07 16:49 38.68216 12.50047 20240 ft 235 kts 360°
2026-05-07 16:50 38.69845 12.50348 20574 ft 237 kts 359°
2026-05-07 16:50 38.71485 12.50649 20922 ft 239 kts 359°
2026-05-07 16:50 38.73120 12.50951 21270 ft 240 kts 359°
2026-05-07 16:50 38.74783 12.51255 21626 ft 242 kts 359°
2026-05-07 16:51 38.76462 12.51565 21991 ft 244 kts 358°
2026-05-07 16:51 38.78143 12.51874 22355 ft 246 kts 358°
2026-05-07 16:51 38.79848 12.52190 22726 ft 247 kts 358°
2026-05-07 16:51 38.81555 12.52502 23100 ft 249 kts 357°
2026-05-07 16:52 38.83274 12.52821 23468 ft 251 kts 357°
2026-05-07 16:52 38.85018 12.53141 23788 ft 255 kts 357°
2026-05-07 16:52 38.86784 12.53467 24103 ft 258 kts 357°
2026-05-07 16:52 38.88577 12.53798 24425 ft 261 kts 356°
2026-05-07 16:53 38.90387 12.54133 24765 ft 265 kts 357°
2026-05-07 16:53 38.92221 12.54473 25094 ft 268 kts 356°
2026-05-07 16:53 38.94053 12.54810 25422 ft 271 kts 356°
2026-05-07 16:53 38.95935 12.55159 25760 ft 274 kts 356°
2026-05-07 16:54 38.97837 12.55511 26099 ft 277 kts 355°
2026-05-07 16:54 38.99759 12.55867 26447 ft 281 kts 355°
2026-05-07 16:54 39.01705 12.56228 26796 ft 284 kts 355°
2026-05-07 16:54 39.03670 12.56593 27154 ft 287 kts 355°
2026-05-07 16:55 39.05663 12.56963 27509 ft 290 kts 354°
2026-05-07 16:55 39.07670 12.57335 27872 ft 293 kts 354°
2026-05-07 16:55 39.09703 12.57712 28242 ft 296 kts 354°
2026-05-07 16:55 39.11756 12.58095 28615 ft 299 kts 354°
2026-05-07 16:56 39.13803 12.58476 29026 ft 302 kts 355°
2026-05-07 16:56 39.15898 12.58868 29415 ft 304 kts 355°
2026-05-07 16:56 39.20129 12.59656 30163 ft 308 kts 354°
2026-05-07 16:57 39.22255 12.60052 30493 ft 309 kts 354°
2026-05-07 16:57 39.24391 12.60452 30828 ft 310 kts 354°
2026-05-07 16:57 39.26532 12.60852 31169 ft 311 kts 353°
2026-05-07 16:57 39.28676 12.61252 31509 ft 311 kts 353°
2026-05-07 16:58 39.30819 12.61654 31853 ft 311 kts 353°
2026-05-07 16:58 39.32936 12.62051 32196 ft 311 kts 352°
2026-05-07 16:58 39.35073 12.62451 32577 ft 310 kts 352°
2026-05-07 16:58 39.37208 12.62851 32928 ft 308 kts 351°
2026-05-07 16:59 39.39327 12.63249 33293 ft 306 kts 351°
2026-05-07 16:59 39.41435 12.63645 33650 ft 305 kts 350°
2026-05-07 16:59 39.43523 12.64038 34002 ft 302 kts 349°
2026-05-07 16:59 39.45596 12.64427 34322 ft 300 kts 349°
2026-05-07 17:00 39.47650 12.64814 34647 ft 297 kts 348°
2026-05-07 17:00 39.49684 12.65196 34975 ft 294 kts 348°
2026-05-07 17:00 39.51695 12.65578 35311 ft 290 kts 347°
2026-05-07 17:00 39.53678 12.65950 35647 ft 286 kts 346°
2026-05-07 17:01 39.55616 12.66314 35887 ft 286 kts 346°
2026-05-07 17:01 39.57629 12.66666 35900 ft 298 kts 346°
2026-05-07 17:01 39.59732 12.67055 35904 ft 310 kts 348°
2026-05-07 17:01 39.61902 12.67478 35911 ft 320 kts 348°
2026-05-07 17:02 39.66427 12.68336 35907 ft 337 kts 349°
2026-05-07 17:02 39.71180 12.69238 35914 ft 349 kts 351°
2026-05-07 17:03 39.76000 12.70153 35914 ft 356 kts 350°
2026-05-07 17:03 39.80992 12.71096 35919 ft 370 kts 352°
2026-05-07 17:04 39.86152 12.72082 35919 ft 379 kts 352°
2026-05-07 17:04 39.91433 12.73092 35924 ft 385 kts 352°
2026-05-07 17:05 39.96755 12.74096 35926 ft 394 kts 352°
2026-05-07 17:05 40.02264 12.75149 35926 ft 406 kts 353°
2026-05-07 17:06 40.07920 12.76232 35929 ft 415 kts 353°
2026-05-07 17:06 40.13686 12.77338 35910 ft 422 kts 354°
2026-05-07 17:07 40.19526 12.78458 35919 ft 426 kts 354°
2026-05-07 17:07 40.25421 12.79593 35932 ft 429 kts 354°
2026-05-07 17:08 40.31342 12.80732 35935 ft 430 kts 354°
2026-05-07 17:08 40.37247 12.81872 35934 ft 432 kts 354°
2026-05-07 17:09 40.43199 12.83020 35933 ft 433 kts 355°
2026-05-07 17:09 40.49176 12.84179 35933 ft 433 kts 355°
2026-05-07 17:10 40.55140 12.85334 35937 ft 433 kts 355°
2026-05-07 17:10 40.61096 12.86491 35937 ft 432 kts 355°
2026-05-07 17:11 40.67021 12.87643 35937 ft 433 kts 355°
2026-05-07 17:11 40.72980 12.88805 35938 ft 432 kts 355°
2026-05-07 17:12 40.78950 12.89972 35942 ft 432 kts 355°
2026-05-07 17:12 40.84862 12.91126 35948 ft 432 kts 356°
2026-05-07 17:13 40.90816 12.92295 35942 ft 431 kts 356°
2026-05-07 17:13 40.96758 12.93463 35942 ft 431 kts 356°
2026-05-07 17:14 41.02686 12.94625 35943 ft 430 kts 356°
2026-05-07 17:14 41.08567 12.95786 35943 ft 430 kts 356°
2026-05-07 17:15 41.14481 12.96954 35947 ft 429 kts 357°
2026-05-07 17:15 41.20388 12.98121 35947 ft 428 kts 357°
2026-05-07 17:16 41.26246 12.99280 35949 ft 428 kts 358°
2026-05-07 17:16 41.32138 13.00452 35944 ft 427 kts 358°
2026-05-07 17:17 41.38008 13.01619 35946 ft 426 kts 358°
2026-05-07 17:17 41.43868 13.02786 35946 ft 425 kts 358°
2026-05-07 17:18 41.48737 13.03757 35945 ft 425 kts 358°
2026-05-07 17:18 41.54593 13.04927 35945 ft 425 kts 358°
2026-05-07 17:19 41.60454 13.06100 35942 ft 426 kts 358°
2026-05-07 17:19 41.66288 13.07272 35967 ft 426 kts 358°
2026-05-07 17:20 41.72156 13.08450 35952 ft 426 kts 358°
2026-05-07 17:20 41.78023 13.09631 35952 ft 425 kts 358°
2026-05-07 17:21 41.83846 13.10805 35964 ft 425 kts 358°
2026-05-07 17:21 41.89708 13.11989 35962 ft 426 kts 359°
2026-05-07 17:22 41.95583 13.13181 35973 ft 426 kts 359°
2026-05-07 17:22 42.01441 13.14350 35955 ft 422 kts 356°
2026-05-07 17:23 42.04333 13.14500 35971 ft 408 kts 346°
2026-05-07 17:23 42.07084 13.13956 35956 ft 394 kts 335°
2026-05-07 17:23 42.12190 13.11756 35979 ft 383 kts 328°
2026-05-07 17:24 42.17149 13.09494 35968 ft 369 kts 333°
2026-05-07 17:24 42.21947 13.07573 35968 ft 350 kts 329°
2026-05-07 17:25 42.26515 13.05620 35970 ft 338 kts 330°
2026-05-07 17:25 42.30909 13.03767 35987 ft 328 kts 329°
2026-05-07 17:26 42.35300 13.01904 35994 ft 334 kts 330°
2026-05-07 17:26 42.39765 13.00027 35995 ft 337 kts 330°
2026-05-07 17:27 42.44261 12.98119 35999 ft 340 kts 330°
2026-05-07 17:27 42.48795 12.96201 36002 ft 343 kts 330°
2026-05-07 17:28 42.53359 12.94264 36000 ft 342 kts 330°
2026-05-07 17:28 42.57923 12.92328 35990 ft 344 kts 330°
2026-05-07 17:29 42.62468 12.90387 35984 ft 344 kts 330°
2026-05-07 17:29 42.67044 12.88439 35981 ft 345 kts 330°
2026-05-07 17:30 42.71643 12.86472 35985 ft 348 kts 330°
2026-05-07 17:30 42.76271 12.84494 35985 ft 349 kts 330°
2026-05-07 17:31 42.80912 12.82510 35977 ft 349 kts 330°
2026-05-07 17:31 42.85525 12.80544 35979 ft 346 kts 329°
2026-05-07 17:32 42.90080 12.78543 35978 ft 347 kts 330°
2026-05-07 17:32 42.94692 12.76605 35812 ft 344 kts 330°
2026-05-07 17:33 42.96967 12.75606 35249 ft 341 kts 330°
2026-05-07 17:33 42.99228 12.74626 34673 ft 339 kts 330°
2026-05-07 17:33 43.01477 12.73661 34104 ft 337 kts 330°
2026-05-07 17:33 43.03702 12.72704 33500 ft 332 kts 330°
2026-05-07 17:34 43.05892 12.71758 32938 ft 328 kts 330°
2026-05-07 17:34 43.08028 12.70832 32388 ft 324 kts 330°
2026-05-07 17:34 43.10186 12.69894 31838 ft 326 kts 330°
2026-05-07 17:34 43.12352 12.68952 31302 ft 327 kts 331°
2026-05-07 17:35 43.14527 12.68008 30729 ft 328 kts 332°
2026-05-07 17:35 43.16707 12.67071 30169 ft 328 kts 332°
2026-05-07 17:35 43.18885 12.66126 29578 ft 326 kts 332°
2026-05-07 17:35 43.21035 12.65189 29025 ft 323 kts 332°
2026-05-07 17:36 43.23164 12.64264 28483 ft 320 kts 333°
2026-05-07 17:36 43.25281 12.63343 27949 ft 317 kts 333°
2026-05-07 17:36 43.27381 12.62428 27208 ft 319 kts 333°
2026-05-07 17:36 43.29537 12.61475 26311 ft 329 kts 334°
2026-05-07 17:37 43.31666 12.60570 26238 ft 312 kts 334°
2026-05-07 17:37 43.33692 12.59691 25820 ft 308 kts 333°
2026-05-07 17:37 43.35732 12.58780 25284 ft 309 kts 334°
2026-05-07 17:37 43.37779 12.57882 24767 ft 309 kts 335°
2026-05-07 17:38 43.39833 12.56993 24242 ft 309 kts 335°
2026-05-07 17:38 43.41881 12.56099 23724 ft 309 kts 335°
2026-05-07 17:38 43.43925 12.55199 23163 ft 308 kts 335°
2026-05-07 17:38 43.45953 12.54310 22646 ft 304 kts 336°
2026-05-07 17:39 43.47963 12.53432 22136 ft 302 kts 336°
2026-05-07 17:39 43.49963 12.52552 21624 ft 300 kts 336°
2026-05-07 17:39 43.51946 12.51681 21120 ft 298 kts 336°
2026-05-07 17:39 43.53916 12.50814 20630 ft 295 kts 337°
2026-05-07 17:40 43.55849 12.49967 20127 ft 295 kts 337°
2026-05-07 17:40 43.57803 12.49105 19629 ft 293 kts 338°
2026-05-07 17:40 43.59746 12.48263 19138 ft 291 kts 338°
2026-05-07 17:40 43.61664 12.47398 18652 ft 290 kts 338°
2026-05-07 17:41 43.63584 12.46549 18151 ft 289 kts 339°
2026-05-07 17:41 43.65497 12.45716 17645 ft 286 kts 339°
2026-05-07 17:41 43.67380 12.44887 17163 ft 283 kts 339°
2026-05-07 17:41 43.69221 12.44067 16698 ft 280 kts 339°
2026-05-07 17:42 43.71079 12.43248 16222 ft 278 kts 339°
2026-05-07 17:42 43.72912 12.42438 15766 ft 275 kts 339°
2026-05-07 17:42 43.74737 12.41628 15313 ft 274 kts 339°
2026-05-07 17:42 43.76558 12.40825 14840 ft 274 kts 340°
2026-05-07 17:43 43.78434 12.40343 14379 ft 276 kts 353°
2026-05-07 17:43 43.80330 12.40322 13923 ft 276 kts
2026-05-07 17:43 43.82236 12.40699 13433 ft 276 kts
2026-05-07 17:43 43.84127 12.41071 12964 ft 273 kts
2026-05-07 17:44 43.86007 12.41378 12508 ft 271 kts
2026-05-07 17:44 43.87877 12.41719 12051 ft 270 kts
2026-05-07 17:44 43.89734 12.42090 11598 ft 269 kts
2026-05-07 17:44 43.91586 12.42442 11151 ft 267 kts
2026-05-07 17:45 43.93427 12.42742 10701 ft 265 kts
2026-05-07 17:45 43.95228 12.42596 10268 ft 261 kts 348°
2026-05-07 17:45 43.96981 12.41987 9823 ft 258 kts 338°
2026-05-07 17:45 43.98592 12.40941 9371 ft 254 kts 327°
2026-05-07 17:46 44.00018 12.39526 8943 ft 249 kts 317°
2026-05-07 17:46 44.01330 12.37968 8525 ft 247 kts 318°
2026-05-07 17:46 44.02668 12.36471 8111 ft 246 kts 318°
2026-05-07 17:46 44.03987 12.34966 7701 ft 245 kts 318°
2026-05-07 17:47 44.05297 12.33443 7288 ft 245 kts 317°
2026-05-07 17:47 44.06594 12.31945 6879 ft 245 kts 319°
2026-05-07 17:47 44.07900 12.30456 6474 ft 243 kts 318°
2026-05-07 17:47 44.09291 12.29000 6039 ft 259 kts 327°
2026-05-07 17:48 44.10899 12.28099 5628 ft 239 kts 344°
2026-05-07 17:48 44.12501 12.27956 5265 ft 226 kts
2026-05-07 17:48 44.13996 12.28533 4920 ft 222 kts 23°
2026-05-07 17:48 44.15256 12.29742 4586 ft 219 kts 44°
2026-05-07 17:49 44.16138 12.31434 4252 ft 216 kts 65°
2026-05-07 17:49 44.16550 12.33415 3931 ft 212 kts 84°
2026-05-07 17:49 44.16597 12.35441 3597 ft 208 kts 96°
2026-05-07 17:49 44.16306 12.37364 3281 ft 204 kts 110°
2026-05-07 17:50 44.15688 12.39094 2949 ft 189 kts 124°
2026-05-07 17:50 44.14917 12.40348 2664 ft 155 kts 136°
2026-05-07 17:50 44.14107 12.41215 2416 ft 141 kts 146°
2026-05-07 17:50 44.13455 12.42190 2201 ft 136 kts 123°
2026-05-07 17:51 44.12942 12.43223 2182 ft 125 kts 126°
2026-05-07 17:51 44.12414 12.44160 2188 ft 122 kts 127°
2026-05-07 17:51 44.11825 12.45075 2077 ft 136 kts 133°
2026-05-07 17:51 44.11141 12.45996 1928 ft 134 kts 135°
2026-05-07 17:52 44.10465 12.46876 1763 ft 133 kts 134°
2026-05-07 17:52 44.09804 12.47788 1537 ft 134 kts 132°
2026-05-07 17:52 44.09158 12.48723 1331 ft 133 kts 132°
2026-05-07 17:52 44.08540 12.49614 1247 ft 128 kts 131°
2026-05-07 17:53 44.07948 12.50541 1102 ft 128 kts 127°
2026-05-07 17:53 44.07402 12.51511 956 ft 126 kts 128°
2026-05-07 17:53 44.06849 12.52441 936 ft 126 kts 130°
2026-05-07 17:53 44.06301 12.53390 1005 ft 123 kts 126°
2026-05-07 17:54 44.05812 12.54354 1002 ft 122 kts 126°
2026-05-07 17:54 44.05283 12.55312 889 ft 128 kts 126°
2026-05-07 17:54 44.04749 12.56300 724 ft 131 kts 129°
2026-05-07 17:54 44.04175 12.57307 518 ft 134 kts 127°
2026-05-07 17:55 44.03616 12.58321 366 ft 129 kts 125°
2026-05-07 17:55 44.03081 12.59294 205 ft 122 kts 128°
2026-05-07 17:55 44.02582 12.60192 49 ft 109 kts 128°
2026-05-07 17:55 44.02175 12.60922 40 ft 73 kts 128°
2026-05-07 17:56 44.01985 12.61258 40 ft 38 kts 127°
2026-05-07 17:56 44.01857 12.61489 42 ft 22 kts 128°
2026-05-07 17:56 44.01829 12.61599 42 ft 6 kts 53°
2026-05-07 17:56 44.01872 12.61650 43 ft 10 kts 33°
2026-05-07 17:57 44.01930 12.61711 43 ft 11 kts 38°